Home > Weather > Timișoara > Past weeks

Flag for Romania Past Weather in Timișoara, Romania — Yesterday and Last 2 Weeks

Now
84 °F

Passing clouds.


Feels Like: 83 °F
Forecast: 56 / 89 °F
Wind: 3 mph from Southeast

Location: Timisoara Airport

Current Time: Aug 27, 2016 at 6:24:41 PM

Latest Report: Aug 27, 2016 at 5:30 PM


Visibility: N/A

Pressure: 30.15 "Hg

Humidity: 37%

Dew Point: 55 °F

Location of TimișoaraLocation

Past Weather in Timișoara — Graph

°F

Timișoara Temperature Yesterday

Maximum temperature yesterday: 84 °F (at 4:00 PM)
Minimum temperature yesterday: 59 °F (at 5:30 AM)
Average temperature yesterday: 71 °F

High & Low Weather Summary for the Past Weeks

 TemperatureHumidityPressure
High88 °F (Aug 21, 3:00 PM)100% (Aug 14, 5:00 AM)30.30 "Hg (Aug 14, 5:00 AM)
Low46 °F (Aug 13, 5:30 AM)22% (Aug 13, 4:30 PM)29.83 "Hg (Aug 17, 12:30 PM)
Average69 °F74%30.08 "Hg
* Reported Aug 12 5:00 PM — Aug 27 5:00 PM, Timișoara, Weather by CustomWeather, © 2016

Note: Actual official high and low records may vary slightly from our data, if they occured in-between our weather recording intervals... More about our weather records

Advertising

Timișoara Weather History for the Previous 24 Hours

Scroll right to see more
 ConditionsComfort  
Time TempWeatherWind HumidityBarometerVisibility
5:00 PM
Sat, Aug 27
84 °FPassing clouds.5 mph35%30.15 "HgN/A
4:30 PM84 °FSunny.1 mph33%30.15 "Hg10 mi
4:00 PM84 °FPassing clouds.3 mph37%30.18 "HgN/A
3:30 PM82 °FPassing clouds.5 mph35%30.18 "HgN/A
3:00 PM82 °FSunny.3 mph35%30.18 "Hg10 mi
2:30 PM82 °FSunny.1 mph37%30.18 "Hg10 mi
2:00 PM82 °FPassing clouds.3 mph37%30.21 "HgN/A
1:30 PM82 °FSunny.3 mph35%30.21 "Hg10 mi
1:00 PM81 °FPassing clouds.5 mph42%30.21 "HgN/A
12:30 PM81 °FSunny.2 mph42%30.21 "Hg10 mi
12:00 PM79 °FSunny.2 mph45%30.21 "Hg10 mi
11:30 AM77 °FPassing clouds.5 mph44%30.24 "HgN/A
11:00 AM75 °FPassing clouds.6 mph61%30.24 "HgN/A
10:30 AM72 °FPassing clouds.7 mph69%30.21 "HgN/A
10:00 AM70 °FSunny.8 mph69%30.21 "Hg10 mi
9:30 AM66 °FSunny.8 mph78%30.21 "Hg10 mi
9:00 AM64 °FSunny.9 mph83%30.21 "Hg10 mi
8:30 AM63 °FSunny.7 mph83%30.21 "Hg10 mi
8:00 AM59 °FSunny.7 mph88%30.21 "Hg10 mi
7:30 AM57 °FClear.8 mph94%30.21 "Hg10 mi
7:00 AM57 °FClear.9 mph94%30.21 "Hg10 mi
6:30 AM57 °FClear.8 mph94%30.21 "Hg10 mi
6:00 AM57 °FClear.8 mph94%30.21 "Hg10 mi
5:30 AM59 °FClear.8 mph88%30.21 "Hg10 mi
5:00 AM57 °FClear.8 mph94%30.21 "Hg10 mi
4:30 AM57 °FClear.7 mph94%30.21 "Hg10 mi
4:00 AM57 °FClear.8 mph94%30.18 "Hg10 mi
3:30 AM59 °FClear.6 mph88%30.18 "Hg10 mi
3:00 AM59 °FClear.6 mph88%30.18 "Hg10 mi
2:30 AM59 °FClear.2 mph88%30.18 "Hg10 mi
2:00 AM61 °FClear.7 mph83%30.18 "Hg10 mi
1:30 AM63 °FClear.7 mph83%30.18 "Hg10 mi
1:00 AM63 °FClear.7 mph83%30.18 "Hg10 mi
12:30 AM63 °FClear.7 mph83%30.18 "Hg10 mi
12:00 AM63 °FClear.6 mph83%30.18 "Hg10 mi
11:30 PM
Fri, Aug 26
64 °FClear.6 mph83%30.18 "Hg10 mi
11:00 PM64 °FClear.5 mph83%30.18 "Hg10 mi
10:30 PM66 °FClear.5 mph78%30.18 "Hg10 mi
10:00 PM68 °FClear.2 mph73%30.15 "Hg10 mi
9:30 PM70 °FClear.5 mph73%30.15 "Hg10 mi
9:00 PM72 °FSunny.2 mph65%30.15 "Hg10 mi
8:30 PM77 °FSunny.3 mph51%30.15 "Hg10 mi
8:00 PM77 °FSunny.5 mph54%30.15 "Hg10 mi
7:30 PM81 °FSunny.3 mph45%30.15 "Hg10 mi
7:00 PM82 °FPassing clouds.3 mph30%30.15 "HgN/A
6:30 PM82 °FSunny.5 mph28%30.15 "Hg10 mi
6:00 PM84 °FPassing clouds.7 mph27%30.15 "HgN/A
Weather by CustomWeather, © 2016

See weather overviewHow to use our weather pages